| time (UTC) | temp F | wind direction | speed knots | gust knots | rain 1hr in | rain 24hr in | rain mn in | humidity % | barometer mb |
| 20260506192013 | 85 | 284 | 0.0 | 0.0 | 0.00 | 0.00 | 0.00 | 73 | 1006.7 |
| 20260506191510 | 86 | 85 | 1.7 | 5.2 | 0.00 | 0.00 | 0.00 | 74 | 1006.7 |
| 20260506191006 | 85 | 101 | 0.9 | 0.9 | 0.00 | 0.00 | 0.00 | 76 | 1006.7 |
| 20260506190503 | 84 | 42 | 0.9 | 0.9 | 0.00 | 0.00 | 0.00 | 77 | 1006.8 |
| 20260506190000 | 83 | 59 | 0.9 | 0.9 | 0.00 | 0.00 | 0.00 | 77 | 1006.9 |
| 20260506185458 | 84 | 58 | 0.9 | 1.7 | 0.00 | 0.00 | 0.00 | 76 | 1006.9 |
| 20260506184954 | 83 | 220 | 0.0 | 0.0 | 0.00 | 0.00 | 0.00 | 79 | 1007.0 |
| 20260506184451 | 83 | 87 | 0.0 | 1.7 | 0.00 | 0.00 | 0.00 | 80 | 1007.0 |
| 20260506183943 | 82 | 266 | 0.0 | 0.0 | 0.00 | 0.00 | 0.00 | 80 | 1007.2 |
| 20260506183438 | 82 | 217 | 0.9 | 1.7 | 0.00 | 0.00 | 0.00 | 80 | 1007.0 |
| 20260506182935 | 81 | 73 | 0.0 | 0.9 | 0.00 | 0.00 | 0.00 | 82 | 1007.6 |
| 20260506182432 | 81 | 203 | 0.0 | 0.0 | 0.00 | 0.00 | 0.00 | 83 | 1007.3 |
| 20260506181930 | 81 | 57 | 0.0 | 0.0 | 0.00 | 0.00 | 0.00 | 81 | 1007.6 |
| 20260506181428 | 81 | 104 | 0.0 | 0.0 | 0.00 | 0.00 | 0.00 | 83 | 1007.5 |
| 20260506180924 | 81 | 303 | 0.9 | 1.7 | 0.00 | 0.00 | 0.00 | 82 | 1007.8 |
| 20260506180420 | 81 | 242 | 0.0 | 0.0 | 0.00 | 0.00 | 0.00 | 84 | 1007.8 |
| 20260506175917 | 81 | 265 | 0.0 | 0.0 | 0.00 | 0.00 | 0.00 | 83 | 1007.9 |
| 20260506175414 | 81 | 220 | 0.0 | 0.0 | 0.00 | 0.00 | 0.00 | 84 | 1007.9 |
| 20260506174911 | 80 | 264 | 1.7 | 1.7 | 0.00 | 0.00 | 0.00 | 84 | 1007.9 |
| 20260506174408 | 80 | 253 | 0.0 | 0.9 | 0.00 | 0.00 | 0.00 | 85 | 1007.9 |
| 20260506173905 | 80 | 276 | 0.0 | 0.0 | 0.00 | 0.00 | 0.00 | 85 | 1007.8 |
| 20260506173402 | 80 | 225 | 0.0 | 0.0 | 0.00 | 0.00 | 0.00 | 86 | 1007.7 |
| 20260506172900 | 79 | 286 | 0.0 | 0.9 | 0.00 | 0.00 | 0.00 | 86 | 1007.8 |
| 20260506172356 | 79 | 91 | 0.0 | 0.0 | 0.00 | 0.00 | 0.00 | 88 | 1008.0 |
| 20260506171853 | 79 | 250 | 0.0 | 0.0 | 0.00 | 0.00 | 0.00 | 88 | 1007.9 |
| 20260506171350 | 79 | 280 | 0.0 | 0.0 | 0.00 | 0.00 | 0.00 | 87 | 1007.9 |
| 20260506170848 | 78 | 251 | 0.0 | 0.0 | 0.00 | 0.00 | 0.00 | 88 | 1007.9 |
| 20260506170344 | 78 | 243 | 0.0 | 0.0 | 0.00 | 0.00 | 0.00 | 90 | 1008.0 |
| 20260506165843 | 78 | 85 | 0.9 | 0.9 | 0.00 | 0.00 | 0.00 | 91 | 1008.1 |
| 20260506165341 | 77 | 18 | 1.7 | 2.6 | 0.00 | 0.00 | 0.00 | 91 | 1008.0 |
| 20260506164837 | 77 | 233 | 0.0 | 0.0 | 0.00 | 0.00 | 0.00 | 92 | 1008.2 |
| 20260506164334 | 77 | 272 | 0.0 | 0.0 | 0.00 | 0.00 | 0.00 | 92 | 1008.0 |
| 20260506163832 | 77 | 336 | 0.9 | 0.9 | 0.00 | 0.00 | 0.00 | 93 | 1008.1 |
| 20260506163326 | 77 | 298 | 0.9 | 1.7 | 0.00 | 0.00 | 0.00 | 93 | 1007.9 |
| 20260506162821 | 77 | 220 | 0.0 | 0.0 | 0.00 | 0.00 | 0.00 | 94 | 1007.8 |
| 20260506162319 | 76 | 303 | 1.7 | 1.7 | 0.00 | 0.00 | 0.00 | 94 | 1007.9 |
| 20260506161811 | 76 | 157 | 0.9 | 0.9 | 0.00 | 0.00 | 0.00 | 95 | 1008.1 |
| 20260506161308 | 76 | 215 | 0.0 | 0.9 | 0.00 | 0.00 | 0.00 | 96 | 1007.8 |
| 20260506160805 | 75 | 132 | 0.0 | 0.9 | 0.00 | 0.00 | 0.00 | 97 | 1007.6 |
| 20260506160301 | 76 | 53 | 0.9 | 1.7 | 0.00 | 0.00 | 0.00 | 97 | 1007.7 |
| 20260506155801 | 75 | 247 | 0.0 | 0.0 | 0.00 | 0.00 | 0.00 | 97 | 1007.7 |
| 20260506155257 | 75 | 256 | 0.0 | 0.0 | 0.00 | 0.00 | 0.00 | 96 | 1007.7 |
| 20260506153404 | 76 | 259 | 0.0 | 0.0 | 0.00 | 0.00 | 0.00 | 92 | 1007.2 |
| 20260506152901 | 76 | 185 | 0.0 | 0.0 | 0.00 | 0.00 | 0.00 | 92 | 1007.0 |
| 20260506152358 | 76 | 136 | 0.0 | 0.0 | 0.00 | 0.00 | 0.00 | 92 | 1007.5 |
| 20260506151857 | 76 | 221 | 0.0 | 0.0 | 0.00 | 0.00 | 0.00 | 92 | 1007.2 |
| 20260506151353 | 76 | 242 | 0.0 | 0.9 | 0.00 | 0.00 | 0.00 | 92 | 1007.2 |
| 20260506150851 | 76 | 339 | 0.9 | 0.9 | 0.00 | 0.00 | 0.00 | 92 | 1007.1 |
| 20260506150347 | 76 | 191 | 0.0 | 0.0 | 0.00 | 0.00 | 0.00 | 92 | 1007.1 |
| 20260506145844 | 76 | 157 | 0.9 | 0.9 | 0.00 | 0.00 | 0.00 | 92 | 1007.1 |
| 20260506145340 | 76 | 50 | 0.0 | 0.9 | 0.00 | 0.00 | 0.00 | 92 | 1006.9 |
| 20260506144838 | 76 | 46 | 0.9 | 0.9 | 0.00 | 0.00 | 0.00 | 92 | 1006.9 |
| 20260506144334 | 76 | 223 | 0.0 | 0.0 | 0.00 | 0.00 | 0.00 | 93 | 1006.8 |
| 20260506143833 | 76 | 124 | 0.0 | 0.0 | 0.00 | 0.00 | 0.00 | 93 | 1006.7 |
| 20260506143329 | 76 | 201 | 0.0 | 0.0 | 0.00 | 0.00 | 0.00 | 93 | 1006.9 |
| 20260506142828 | 76 | 146 | 0.0 | 0.0 | 0.00 | 0.00 | 0.00 | 93 | 1006.6 |
| 20260506142325 | 76 | 186 | 0.0 | 0.0 | 0.00 | 0.00 | 0.00 | 93 | 1006.5 |
| 20260506141824 | 76 | 196 | 0.0 | 0.0 | 0.00 | 0.00 | 0.00 | 94 | 1006.7 |
| 20260506141321 | 76 | 53 | 0.9 | 0.9 | 0.00 | 0.00 | 0.00 | 94 | 1006.4 |
| 20260506140819 | 76 | 209 | 0.0 | 0.0 | 0.00 | 0.00 | 0.00 | 94 | 1006.3 |
| 20260506140316 | 76 | 222 | 0.9 | 0.9 | 0.00 | 0.00 | 0.00 | 94 | 1006.2 |
| 20260506135813 | 76 | 222 | 0.0 | 0.0 | 0.00 | 0.00 | 0.00 | 94 | 1006.4 |
| 20260506135309 | 75 | 165 | 1.7 | 1.7 | 0.00 | 0.00 | 0.00 | 94 | 1006.0 |
| 20260506134806 | 76 | 111 | 0.0 | 1.7 | 0.00 | 0.00 | 0.00 | 95 | 1005.9 |
| 20260506134302 | 75 | 31 | 0.0 | 0.0 | 0.00 | 0.00 | 0.00 | 95 | 1005.7 |
| 20260506133759 | 75 | 162 | 0.9 | 0.9 | 0.00 | 0.00 | 0.00 | 95 | 1005.5 |
| 20260506133256 | 75 | 209 | 0.9 | 0.9 | 0.00 | 0.00 | 0.00 | 95 | 1005.8 |
| 20260506132753 | 75 | 216 | 0.9 | 0.9 | 0.00 | 0.00 | 0.00 | 95 | 1005.9 |
| 20260506132250 | 75 | 56 | 0.9 | 1.7 | 0.00 | 0.00 | 0.00 | 95 | 1005.7 |
| 20260506131748 | 75 | 64 | 0.9 | 0.9 | 0.00 | 0.00 | 0.00 | 96 | 1005.7 |
| 20260506131243 | 75 | 170 | 0.9 | 0.9 | 0.00 | 0.00 | 0.00 | 96 | 1005.5 |
| 20260506130740 | 75 | 215 | 0.0 | 0.0 | 0.00 | 0.00 | 0.00 | 96 | 1005.5 |
| 20260506130237 | 75 | 193 | 0.0 | 0.9 | 0.00 | 0.00 | 0.00 | 96 | 1005.3 |
| 20260506125736 | 75 | 212 | 0.0 | 0.0 | 0.00 | 0.00 | 0.00 | 96 | 1005.4 |
| 20260506125233 | 75 | 199 | 0.9 | 0.9 | 0.00 | 0.00 | 0.00 | 96 | 1005.6 |
| 20260506124731 | 75 | 214 | 0.0 | 0.0 | 0.00 | 0.00 | 0.00 | 97 | 1005.4 |
| 20260506124229 | 75 | 156 | 0.0 | 0.0 | 0.00 | 0.00 | 0.00 | 97 | 1005.4 |
| 20260506123726 | 75 | 102 | 0.0 | 0.9 | 0.00 | 0.00 | 0.00 | 97 | 1005.6 |
| 20260506123224 | 74 | 235 | 0.0 | 0.9 | 0.00 | 0.00 | 0.00 | 97 | 1005.4 |
| 20260506122721 | 74 | 101 | 0.9 | 0.9 | 0.00 | 0.00 | 0.00 | 97 | 1005.5 |
| 20260506122218 | 74 | 235 | 0.0 | 0.9 | 0.00 | 0.00 | 0.00 | 97 | 1005.4 |
| 20260506121716 | 74 | 86 | 1.7 | 3.5 | 0.00 | 0.00 | 0.00 | 97 | 1005.5 |
| 20260506121213 | 74 | 234 | 0.0 | 0.0 | 0.00 | 0.00 | 0.00 | 97 | 1005.5 |
| 20260506120710 | 74 | 119 | 0.0 | 0.9 | 0.00 | 0.00 | 0.00 | 97 | 1005.7 |
| 20260506120208 | 74 | 208 | 0.0 | 0.9 | 0.00 | 0.00 | 0.00 | 97 | 1005.3 |
| 20260506115706 | 74 | 181 | 0.0 | 0.0 | 0.00 | 0.00 | 0.00 | 97 | 1005.5 |
| 20260506115204 | 74 | 60 | 0.0 | 0.0 | 0.00 | 0.00 | 0.00 | 97 | 1005.2 |
| 20260506114701 | 74 | 202 | 0.0 | 0.0 | 0.00 | 0.00 | 0.00 | 97 | 1005.4 |
| 20260506114158 | 74 | 181 | 0.0 | 0.0 | 0.00 | 0.00 | 0.00 | 97 | 1005.4 |
| 20260506113657 | 74 | 68 | 0.9 | 0.9 | 0.00 | 0.00 | 0.00 | 97 | 1005.4 |
| 20260506113154 | 74 | 192 | 0.0 | 0.0 | 0.00 | 0.00 | 0.00 | 97 | 1005.3 |
| 20260506112649 | 74 | 192 | 0.0 | 0.0 | 0.00 | 0.00 | 0.00 | 97 | 1005.3 |
| 20260506112148 | 74 | 192 | 0.0 | 0.0 | 0.00 | 0.00 | 0.00 | 97 | 1005.4 |
| 20260506111645 | 74 | 192 | 0.0 | 0.0 | 0.00 | 0.00 | 0.00 | 97 | 1005.3 |
| 20260506111143 | 74 | 192 | 0.0 | 0.0 | 0.00 | 0.00 | 0.00 | 97 | 1005.4 |
| 20260506110640 | 74 | 194 | 0.0 | 0.0 | 0.00 | 0.00 | 0.00 | 97 | 1005.3 |
| 20260506110137 | 74 | 209 | 0.0 | 0.0 | 0.00 | 0.00 | 0.00 | 97 | 1005.4 |
| 20260506105633 | 74 | 209 | 0.0 | 0.0 | 0.00 | 0.00 | 0.00 | 97 | 1005.5 |
| 20260506105130 | 74 | 208 | 0.0 | 0.0 | 0.00 | 0.00 | 0.00 | 97 | 1005.4 |
| 20260506104629 | 74 | 208 | 0.0 | 0.0 | 0.00 | 0.00 | 0.00 | 97 | 1005.2 |
| 20260506104126 | 74 | 208 | 0.0 | 0.0 | 0.00 | 0.00 | 0.00 | 97 | 1005.2 |
| 20260506103623 | 74 | 192 | 0.0 | 0.0 | 0.00 | 0.00 | 0.00 | 97 | 1005.2 |
| 20260506103120 | 74 | 197 | 0.0 | 0.0 | 0.00 | 0.00 | 0.00 | 97 | 1005.3 |
| 20260506102618 | 74 | 205 | 0.0 | 0.0 | 0.00 | 0.00 | 0.00 | 97 | 1005.1 |
| 20260506102115 | 74 | 207 | 0.0 | 0.0 | 0.00 | 0.00 | 0.00 | 97 | 1005.0 |
| 20260506101612 | 74 | 208 | 0.0 | 0.0 | 0.00 | 0.00 | 0.00 | 96 | 1005.3 |
| 20260506101109 | 74 | 207 | 0.0 | 0.0 | 0.00 | 0.00 | 0.00 | 96 | 1005.0 |
| 20260506100607 | 74 | 218 | 0.0 | 0.0 | 0.00 | 0.00 | 0.00 | 96 | 1005.1 |
| 20260506100105 | 74 | 212 | 0.0 | 0.0 | 0.00 | 0.00 | 0.00 | 96 | 1005.0 |
| 20260506095604 | 75 | 207 | 0.0 | 0.0 | 0.00 | 0.00 | 0.00 | 96 | 1004.9 |
| 20260506095100 | 75 | 231 | 0.0 | 0.0 | 0.00 | 0.00 | 0.00 | 96 | 1005.2 |
| 20260506094557 | 75 | 214 | 0.0 | 0.0 | 0.00 | 0.00 | 0.00 | 96 | 1005.1 |
| 20260506094055 | 75 | 215 | 0.0 | 0.0 | 0.00 | 0.00 | 0.00 | 96 | 1005.2 |
| 20260506093553 | 75 | 213 | 0.0 | 0.0 | 0.00 | 0.00 | 0.00 | 96 | 1005.3 |
| 20260506093051 | 74 | 206 | 0.0 | 0.0 | 0.00 | 0.00 | 0.00 | 96 | 1005.2 |
| 20260506092548 | 74 | 227 | 0.0 | 0.0 | 0.00 | 0.00 | 0.00 | 96 | 1005.2 |
| 20260506092045 | 74 | 205 | 0.0 | 0.0 | 0.00 | 0.00 | 0.00 | 97 | 1005.1 |
| 20260506091543 | 74 | 219 | 0.0 | 0.0 | 0.00 | 0.00 | 0.00 | 97 | 1005.1 |
| 20260506091040 | 74 | 222 | 0.0 | 0.0 | 0.00 | 0.00 | 0.00 | 97 | 1005.0 |
| 20260506090538 | 74 | 161 | 0.0 | 0.9 | 0.00 | 0.00 | 0.00 | 97 | 1005.2 |
| 20260506090033 | 74 | 174 | 0.0 | 0.9 | 0.00 | 0.00 | 0.00 | 97 | 1005.2 |
| 20260506084233 | 75 | 201 | 0.0 | 0.9 | 0.00 | 0.00 | 0.00 | 95 | 1005.1 |
| 20260506083730 | 75 | 201 | 0.0 | 0.9 | 0.00 | 0.00 | 0.00 | 95 | 1005.1 |
| 20260506083228 | 75 | 212 | 0.0 | 0.0 | 0.00 | 0.00 | 0.00 | 95 | 1005.3 |
| 20260506082725 | 75 | 232 | 0.0 | 0.9 | 0.00 | 0.00 | 0.00 | 94 | 1005.3 |
| 20260506082220 | 75 | 210 | 0.9 | 0.9 | 0.00 | 0.00 | 0.00 | 94 | 1005.3 |
| 20260506081719 | 75 | 61 | 1.7 | 3.5 | 0.00 | 0.00 | 0.00 | 94 | 1005.5 |
| 20260506081216 | 75 | 206 | 0.0 | 0.0 | 0.00 | 0.00 | 0.00 | 94 | 1005.3 |
| 20260506080714 | 75 | 217 | 0.0 | 0.9 | 0.00 | 0.00 | 0.00 | 94 | 1005.4 |
| 20260506080210 | 75 | 210 | 0.0 | 0.0 | 0.00 | 0.00 | 0.00 | 94 | 1005.2 |
| 20260506073154 | 75 | 137 | 1.7 | 1.7 | 0.00 | 0.00 | 0.00 | 94 | 1005.3 |
| 20260506072650 | 76 | 251 | 0.0 | 0.0 | 0.00 | 0.00 | 0.00 | 93 | 1005.4 |
| 20260506072148 | 76 | 248 | 1.7 | 1.7 | 0.00 | 0.00 | 0.00 | 93 | 1005.3 |
| 20260506071645 | 76 | 225 | 0.0 | 0.0 | 0.00 | 0.00 | 0.00 | 93 | 1005.5 |
| 20260506071143 | 76 | 226 | 0.0 | 0.0 | 0.00 | 0.00 | 0.00 | 93 | 1005.6 |
| 20260506070640 | 76 | 49 | 0.0 | 0.0 | 0.00 | 0.00 | 0.00 | 93 | 1005.5 |
| 20260506070137 | 76 | 39 | 0.0 | 1.7 | 0.00 | 0.00 | 0.00 | 93 | 1005.7 |
| 20260506062114 | 76 | 225 | 0.9 | 0.9 | 0.00 | 0.00 | 0.00 | 93 | 1005.4 |
| 20260506061610 | 76 | 63 | 0.9 | 2.6 | 0.00 | 0.00 | 0.00 | 93 | 1005.4 |
| 20260506061108 | 76 | 201 | 0.0 | 0.9 | 0.00 | 0.00 | 0.00 | 94 | 1005.5 |
| 20260506060606 | 76 | 207 | 0.9 | 1.7 | 0.00 | 0.00 | 0.00 | 94 | 1005.3 |
| 20260506051035 | 76 | 199 | 0.0 | 0.0 | 0.00 | 0.00 | 0.00 | 93 | 1005.3 |
| 20260506050533 | 76 | 85 | 3.5 | 5.2 | 0.00 | 0.00 | 0.00 | 93 | 1005.3 |
| 20260506045023 | 77 | 287 | 0.0 | 0.9 | 0.00 | 0.00 | 0.00 | 92 | 1005.5 |
| 20260506044521 | 77 | 195 | 0.9 | 1.7 | 0.00 | 0.00 | 0.00 | 92 | 1005.3 |
| 20260506044018 | 77 | 154 | 0.9 | 0.9 | 0.00 | 0.00 | 0.00 | 91 | 1005.1 |
| 20260506043515 | 77 | 196 | 0.9 | 1.7 | 0.00 | 0.00 | 0.00 | 91 | 1005.2 |
| 20260506043013 | 77 | 200 | 0.9 | 0.9 | 0.00 | 0.00 | 0.00 | 91 | 1005.2 |
| 20260506042512 | 78 | 160 | 1.7 | 2.6 | 0.00 | 0.00 | 0.00 | 90 | 1005.3 |
| 20260506042010 | 78 | 191 | 1.7 | 1.7 | 0.00 | 0.00 | 0.00 | 90 | 1005.3 |
| 20260506041508 | 78 | 211 | 0.0 | 0.9 | 0.00 | 0.00 | 0.00 | 90 | 1004.9 |
| 20260506041004 | 78 | 82 | 3.5 | 3.5 | 0.00 | 0.00 | 0.00 | 89 | 1004.9 |
| 20260506040502 | 78 | 80 | 0.9 | 0.9 | 0.00 | 0.00 | 0.00 | 89 | 1005.1 |
| 20260506035958 | 79 | 230 | 0.9 | 1.7 | 0.00 | 0.00 | 0.00 | 88 | 1004.8 |
| 20260506035455 | 79 | 110 | 0.9 | 0.9 | 0.00 | 0.00 | 0.00 | 88 | 1004.9 |
| 20260506034951 | 79 | 219 | 0.9 | 1.7 | 0.00 | 0.00 | 0.00 | 88 | 1004.7 |
| 20260506034449 | 79 | 77 | 0.0 | 0.9 | 0.00 | 0.00 | 0.00 | 88 | 1004.9 |
| 20260506033946 | 79 | 108 | 3.5 | 5.2 | 0.00 | 0.00 | 0.00 | 87 | 1004.8 |
| 20260506033444 | 79 | 159 | 0.9 | 1.7 | 0.00 | 0.00 | 0.00 | 87 | 1004.7 |
| 20260506032940 | 80 | 50 | 1.7 | 1.7 | 0.00 | 0.00 | 0.00 | 87 | 1004.6 |
| 20260506032437 | 80 | 226 | 0.0 | 0.9 | 0.00 | 0.00 | 0.00 | 86 | 1004.5 |
| 20260506031934 | 80 | 59 | 3.5 | 5.2 | 0.00 | 0.00 | 0.00 | 86 | 1004.5 |
| 20260506031431 | 80 | 71 | 3.5 | 5.2 | 0.00 | 0.00 | 0.00 | 86 | 1004.6 |
| 20260506030929 | 80 | 214 | 0.9 | 0.9 | 0.00 | 0.00 | 0.00 | 86 | 1004.5 |
| 20260506030427 | 80 | 87 | 2.6 | 6.1 | 0.00 | 0.00 | 0.00 | 85 | 1004.6 |
| 20260506025923 | 80 | 216 | 1.7 | 3.5 | 0.00 | 0.00 | 0.00 | 85 | 1004.3 |
| 20260506025420 | 81 | 118 | 0.9 | 0.9 | 0.00 | 0.00 | 0.00 | 85 | 1004.2 |
| 20260506024917 | 81 | 79 | 5.2 | 7.8 | 0.00 | 0.00 | 0.00 | 85 | 1004.0 |
| 20260506024414 | 81 | 205 | 0.0 | 0.0 | 0.00 | 0.00 | 0.00 | 85 | 1003.9 |
| 20260506023909 | 81 | 225 | 0.0 | 0.9 | 0.00 | 0.00 | 0.00 | 84 | 1003.8 |
| 20260506023407 | 81 | 72 | 1.7 | 1.7 | 0.00 | 0.00 | 0.00 | 84 | 1003.7 |
| 20260506022903 | 82 | 207 | 1.7 | 1.7 | 0.00 | 0.00 | 0.00 | 83 | 1003.8 |
| 20260506022401 | 82 | 80 | 1.7 | 2.6 | 0.00 | 0.00 | 0.00 | 83 | 1003.8 |
| 20260506021859 | 82 | 205 | 0.0 | 0.0 | 0.00 | 0.00 | 0.00 | 82 | 1003.8 |
| 20260506021355 | 82 | 215 | 1.7 | 3.5 | 0.00 | 0.00 | 0.00 | 82 | 1003.4 |
| 20260506020852 | 83 | 266 | 2.6 | 3.5 | 0.00 | 0.00 | 0.00 | 81 | 1003.5 |
| 20260506020350 | 83 | 49 | 1.7 | 2.6 | 0.00 | 0.00 | 0.00 | 80 | 1003.5 |
| 20260506015847 | 83 | 165 | 1.7 | 1.7 | 0.00 | 0.00 | 0.00 | 79 | 1003.4 |
| 20260506015345 | 84 | 209 | 0.0 | 0.9 | 0.00 | 0.00 | 0.00 | 78 | 1003.2 |
| 20260506014842 | 84 | 132 | 1.7 | 1.7 | 0.00 | 0.00 | 0.00 | 77 | 1003.1 |
| 20260506014338 | 84 | 112 | 1.7 | 2.6 | 0.00 | 0.00 | 0.00 | 76 | 1003.0 |
| 20260506013835 | 84 | 119 | 0.9 | 0.9 | 0.00 | 0.00 | 0.00 | 77 | 1002.9 |
| 20260506013333 | 84 | 227 | 0.0 | 0.0 | 0.00 | 0.00 | 0.00 | 76 | 1003.0 |
| 20260506012829 | 84 | 39 | 3.5 | 3.5 | 0.00 | 0.00 | 0.00 | 76 | 1002.7 |
| 20260506012326 | 84 | 198 | 0.0 | 0.0 | 0.00 | 0.00 | 0.00 | 76 | 1002.6 |
| 20260506011823 | 84 | 120 | 0.0 | 0.0 | 0.00 | 0.00 | 0.00 | 76 | 1002.8 |
| 20260506011320 | 84 | 172 | 0.9 | 0.9 | 0.00 | 0.00 | 0.00 | 75 | 1002.6 |
| 20260506010817 | 85 | 204 | 0.0 | 0.0 | 0.00 | 0.00 | 0.00 | 75 | 1002.4 |
| 20260506010315 | 85 | 212 | 0.0 | 0.9 | 0.00 | 0.00 | 0.00 | 75 | 1002.3 |
| 20260506005812 | 85 | 183 | 0.0 | 0.9 | 0.00 | 0.00 | 0.00 | 74 | 1002.3 |
| 20260506005309 | 85 | 211 | 0.0 | 0.0 | 0.00 | 0.00 | 0.00 | 74 | 1002.3 |
| 20260506004805 | 85 | 279 | 0.0 | 0.9 | 0.00 | 0.00 | 0.00 | 73 | 1002.1 |
| 20260506004303 | 86 | 217 | 0.0 | 0.0 | 0.00 | 0.00 | 0.00 | 73 | 1002.2 |
| 20260506003758 | 86 | 76 | 2.6 | 2.6 | 0.00 | 0.00 | 0.00 | 71 | 1002.2 |
| 20260506003255 | 86 | 138 | 0.9 | 1.7 | 0.00 | 0.00 | 0.00 | 72 | 1002.3 |
| 20260506002751 | 86 | 204 | 0.0 | 0.0 | 0.00 | 0.00 | 0.00 | 72 | 1002.1 |
| 20260506002247 | 86 | 212 | 0.0 | 0.0 | 0.00 | 0.00 | 0.00 | 72 | 1002.2 |
| 20260506001743 | 87 | 236 | 0.0 | 0.0 | 0.00 | 0.00 | 0.00 | 71 | 1002.3 |
| 20260506001241 | 86 | 185 | 0.0 | 0.0 | 0.00 | 0.00 | 0.00 | 71 | 1002.4 |
| 20260506000738 | 87 | 213 | 0.0 | 0.0 | 0.00 | 0.00 | 0.00 | 72 | 1002.1 |
| 20260506000235 | 88 | 226 | 0.0 | 0.0 | 0.00 | 0.00 | 0.00 | 70 | 1002.2 |
| 20260505235732 | 87 | 244 | 0.0 | 0.0 | 0.00 | 0.00 | 0.00 | 70 | 1002.2 |
| 20260505235230 | 87 | 239 | 0.9 | 0.9 | 0.00 | 0.00 | 0.00 | 70 | 1002.0 |
| 20260505234726 | 87 | 225 | 0.0 | 0.0 | 0.00 | 0.00 | 0.00 | 70 | 1002.3 |
| 20260505234224 | 88 | 220 | 0.0 | 0.9 | 0.00 | 0.00 | 0.00 | 71 | 1002.0 |
| 20260505233720 | 88 | 248 | 0.0 | 0.0 | 0.00 | 0.00 | 0.00 | 69 | 1002.2 |
| 20260505233218 | 88 | 249 | 0.0 | 0.0 | 0.00 | 0.00 | 0.00 | 72 | 1002.0 |
| 20260505232715 | 87 | 217 | 0.0 | 0.0 | 0.00 | 0.00 | 0.00 | 71 | 1002.1 |
| 20260505232213 | 87 | 217 | 0.0 | 0.0 | 0.00 | 0.00 | 0.00 | 72 | 1002.2 |
| 20260505231709 | 87 | 217 | 0.0 | 0.0 | 0.00 | 0.00 | 0.00 | 71 | 1002.2 |
| 20260505231208 | 87 | 247 | 0.0 | 0.0 | 0.00 | 0.00 | 0.00 | 71 | 1002.2 |
| 20260505230706 | 87 | 233 | 0.0 | 0.0 | 0.00 | 0.00 | 0.00 | 70 | 1002.2 |
| 20260505230202 | 87 | 167 | 1.7 | 1.7 | 0.00 | 0.00 | 0.00 | 70 | 1002.2 |
| 20260505225659 | 88 | 209 | 0.0 | 0.0 | 0.00 | 0.00 | 0.00 | 70 | 1002.1 |
| 20260505225155 | 87 | 254 | 0.0 | 0.0 | 0.00 | 0.00 | 0.00 | 68 | 1002.2 |
| 20260505224651 | 88 | 202 | 1.7 | 2.6 | 0.00 | 0.00 | 0.00 | 70 | 1002.1 |
| 20260505224149 | 87 | 159 | 0.0 | 0.9 | 0.00 | 0.00 | 0.00 | 71 | 1002.1 |
| 20260505223646 | 88 | 12 | 0.9 | 1.7 | 0.00 | 0.00 | 0.00 | 69 | 1002.0 |
| 20260505223142 | 87 | 230 | 0.9 | 0.9 | 0.00 | 0.00 | 0.00 | 70 | 1002.1 |
| 20260505222638 | 87 | 25 | 1.7 | 1.7 | 0.00 | 0.00 | 0.00 | 70 | 1002.1 |
| 20260505222135 | 88 | 222 | 0.9 | 1.7 | 0.00 | 0.00 | 0.00 | 70 | 1002.1 |
| 20260505221632 | 87 | 221 | 0.0 | 0.9 | 0.00 | 0.00 | 0.00 | 70 | 1002.2 |
| 20260505221128 | 88 | 188 | 0.0 | 0.0 | 0.00 | 0.00 | 0.00 | 70 | 1002.2 |
| 20260505220626 | 88 | 77 | 0.9 | 0.9 | 0.00 | 0.00 | 0.00 | 68 | 1002.3 |
| 20260505220123 | 88 | 234 | 0.0 | 0.9 | 0.00 | 0.00 | 0.00 | 68 | 1002.4 |
| 20260505215621 | 88 | 182 | 0.0 | 0.9 | 0.00 | 0.00 | 0.00 | 69 | 1002.4 |
| 20260505215119 | 87 | 345 | 0.9 | 0.9 | 0.00 | 0.00 | 0.00 | 70 | 1002.6 |
| 20260505214617 | 88 | 222 | 0.0 | 0.9 | 0.00 | 0.00 | 0.00 | 70 | 1002.6 |
| 20260505214114 | 87 | 230 | 0.9 | 0.9 | 0.00 | 0.00 | 0.00 | 69 | 1002.6 |
| 20260505213611 | 87 | 84 | 1.7 | 1.7 | 0.00 | 0.00 | 0.00 | 70 | 1002.6 |
| 20260505213108 | 88 | 232 | 0.0 | 0.0 | 0.00 | 0.00 | 0.00 | 73 | 1002.9 |
| 20260505212603 | 88 | 268 | 0.0 | 0.0 | 0.00 | 0.00 | 0.00 | 71 | 1002.8 |
| 20260505212101 | 87 | 234 | 0.0 | 0.0 | 0.00 | 0.00 | 0.00 | 70 | 1002.9 |
| 20260505211558 | 87 | 237 | 0.0 | 0.0 | 0.00 | 0.00 | 0.00 | 71 | 1003.0 |
| 20260505211055 | 87 | 232 | 0.9 | 0.9 | 0.00 | 0.00 | 0.00 | 72 | 1003.1 |
| 20260505210552 | 86 | 207 | 0.9 | 0.9 | 0.00 | 0.00 | 0.00 | 72 | 1003.1 |
| 20260505210049 | 86 | 204 | 0.9 | 0.9 | 0.00 | 0.00 | 0.00 | 71 | 1003.3 |
| 20260505205547 | 87 | 83 | 2.6 | 2.6 | 0.00 | 0.00 | 0.00 | 69 | 1003.3 |
| 20260505205044 | 87 | 216 | 0.9 | 0.9 | 0.00 | 0.00 | 0.00 | 71 | 1003.4 |
| 20260505204541 | 87 | 227 | 0.0 | 0.0 | 0.00 | 0.00 | 0.00 | 71 | 1003.3 |
| 20260505204038 | 87 | 232 | 0.0 | 0.9 | 0.00 | 0.00 | 0.00 | 70 | 1003.7 |
| 20260505203535 | 86 | 249 | 0.9 | 0.9 | 0.00 | 0.00 | 0.00 | 72 | 1003.9 |
| 20260505203032 | 87 | 282 | 0.0 | 0.9 | 0.00 | 0.00 | 0.00 | 72 | 1003.7 |
| 20260505202528 | 86 | 238 | 0.0 | 0.0 | 0.00 | 0.00 | 0.00 | 73 | 1004.0 |
| 20260505202024 | 86 | 219 | 1.7 | 2.6 | 0.00 | 0.00 | 0.00 | 73 | 1004.1 |
| 20260505201521 | 87 | 220 | 0.0 | 0.9 | 0.00 | 0.00 | 0.00 | 71 | 1004.1 |
| 20260505201019 | 86 | 253 | 0.9 | 1.7 | 0.00 | 0.00 | 0.00 | 72 | 1004.1 |
| 20260505200516 | 86 | 304 | 0.9 | 1.7 | 0.00 | 0.00 | 0.00 | 72 | 1004.2 |
| 20260505200008 | 86 | 244 | 0.0 | 0.9 | 0.00 | 0.00 | 0.00 | 75 | 1004.6 |
| 20260505195504 | 86 | 183 | 0.9 | 1.7 | 0.00 | 0.00 | 0.00 | 74 | 1004.4 |
| 20260505195001 | 85 | 186 | 0.9 | 0.9 | 0.00 | 0.00 | 0.00 | 74 | 1004.3 |
| 20260505194459 | 84 | 221 | 0.0 | 0.9 | 0.00 | 0.00 | 0.00 | 78 | 1004.3 |
| 20260505193958 | 84 | 89 | 0.9 | 1.7 | 0.00 | 0.00 | 0.00 | 75 | 1004.4 |
| 20260505193456 | 84 | 212 | 0.0 | 0.0 | 0.00 | 0.00 | 0.00 | 77 | 1004.5 |
| 20260505192953 | 84 | 268 | 0.0 | 0.9 | 0.00 | 0.00 | 0.00 | 78 | 1004.5 |
| 20260505192452 | 84 | 236 | 0.0 | 0.0 | 0.00 | 0.00 | 0.00 | 77 | 1004.5 |